Regional Weather Roundup
Issued by NWS

Home | Current Version | Previous Version | Graphics & Text | Print | Product List | Glossary On
Versions: 1 2 3 4 5 6 7 8 9 10 11 12 13 14 15 16 17 18 19 20 21 22 23 24 25 26 27 28 29 30 31 32 33 34 35 36 37 38 39 40 41 42 43 44 45 46 47 48 49 50
000
ASUS45 KSLC 260710
RWRUT

UTAH REGIONAL WEATHER ROUNDUP
NATIONAL WEATHER SERVICE SALT LAKE CITY UT
100 AM MDT SAT MAY 26 2018

UTZ001>011-023>025-260800-

NORTHERN UTAH

CITY           SKY/WX    TMP DP  RH WIND       PRES   REMARKS
BRIGHAM CITY   CLEAR     72  38  28 CALM      29.85S
HILL AFB       CLEAR     64  35  34 E14       29.87S
LOGAN          CLEAR     55  46  71 E3        29.85R
OGDEN          CLEAR     61  36  39 S6        29.85S
SALT LAKE CITY CLEAR     68  37  32 E6        29.83S
TOOELE VALLEY  CLEAR     57  34  41 S8        29.85S
WENDOVER       CLEAR     71  26  18 W5        29.81S
HEBER CITY       N/A     45  36  70 CALM      29.94S
WEST JORDAN    CLEAR     66  33  28 S10       29.87S

$$

UTZ011>015-024>027-260800-

CENTRAL/NORTHEAST UTAH

CITY           SKY/WX    TMP DP  RH WIND       PRES   REMARKS
PROVO AIRPORT  CLEAR     61  44  53 SE8       29.88S
MOAB/CANYONLAN CLEAR     65  12  12 CALM      29.86F
DELTA          CLEAR     59  23  25 SE9       29.91S
PRICE          CLEAR     59   9  13 NE10      29.95F
ROOSEVELT      CLEAR     50  32  50 SW7       29.94S
VERNAL         CLEAR     56  23  27 W6        29.93F

$$

UTZ013>016-019>022-027-260800-

SOUTHERN UTAH

CITY           SKY/WX    TMP DP  RH WIND       PRES   REMARKS
BRYCE CANYON   CLEAR     41  14  33 VRB5      30.11F
CEDAR CITY     CLEAR     54  18  24 CALM      29.97S
MILFORD        CLEAR     53  20  27 S8        29.93S
ST GEORGE      SUNNY     69  15  12 SE5       29.86S
HANKSVILLE     CLEAR     72  14  11 S5        29.89S
BLANDING         N/A     62   9  12 E6        30.10S

$$

REGIONAL REPORTS     COLORADO/ARIZONA

CITY           SKY/WX    TMP DP  RH WIND       PRES   REMARKS
CRAIG, CO      CLEAR     45  36  70 CALM      30.04S
GRAND JUNCTION CLEAR     62  11  13 E9        29.92S
RIFLE, CO      CLEAR     60  19  20 CALM      30.01S
MONTROSE, CO   CLEAR     60  16  18 SE15      30.04F
CORTEZ, CO     CLEAR     46  21  37 NE8       30.07F
COLORADO CITY    N/A     46  19  34 SE5       30.01S
PAGE, AZ       CLEAR     76   9   7 SW10G20   29.92S
GRAND CANYON   CLEAR     55  12  18 S7        30.11F
KINGMAN, AZ      N/A    N/A N/A N/A MISG      29.93F
FLAGSTAFF, AZ  CLEAR     43  14  31 CALM      30.14F

$$

REGIONAL REPORTS    NEVADA/IDAHO/WYOMING

CITY           SKY/WX    TMP DP  RH WIND       PRES   REMARKS
LAS VEGAS, NV  CLEAR     72  36  26 SW13      29.82S
ELY, NY        CLEAR     48  23  37 S13       29.97S
ELKO, NV       CLEAR     51  40  65 S8        29.94F
POCATELLO, ID  CLEAR     63  45  51 SW22G33   29.86R
BURLEY, ID     CLEAR     61  47  59 SW8G18    29.87R
FORT BRIDGER,    N/A     62  20  20 SW12      30.04F
EVANSTON, WY   CLEAR     60  32  34 SW5       30.03S
ROCK SPRINGS,  CLEAR     63  11  13 S9G16     30.01S

$$



USA.gov is the U.S. government's official web portal to all federal, state and local government web resources and services.